Location: Recife
(8.0585°S, 34.8848°W)
Time: 20:17:32
(UTC-03:00)

A-11 Canister half - Pass Details

Date: 18 April 2026
Orbit: 1523 x 1684 km, 47.3° (Epoch: 16 May)

Event Time Altitude Azimuth Distance (km) Brightness Sun altitude
Rises 22:06:02 0° 258° (WSW) 4,780 11.8 -71.8°
Enters shadow 22:06:27 - 259° (W) 4,687 11.8 -71.9°
Reaches altitude 10° 22:11:03 10° 279° (W) 3,826 - -73.0°
Maximum altitude 22:15:56 15° 310° (NW) 3,477 - -74.2°
Drops below altitude 10° 22:20:54 10° 341° (NNW) 3,880 - -75.4°
Sets 22:26:09 0° 3° (N) 4,890 - -76.7°
